Home > Time Zones > World Clock > Weather > U.S.A. > Napa > Past weeks

Flag for U.S.A. Weather past 2 weeks in Napa, California, U.S.A.

Now
63 °F

Sunny.


Feels Like: 63 °F
Forecast: 47 / 77 °F
Wind: 23 mph from West

Location: Napa County Airport


UV Index: 5 (Moderate)

Visibility: 10 mi


Pressure: 30.02 "Hg

Humidity: 73%

Dew point: 54 °F

Location of NapaLocation

Historic Weather in Napa

°F

Napa temperature yesterday

Maximum temperature yesterday: 68 °F (at 1:54 PM)
Minimum temperature yesterday: 46 °F (at 4:54 AM)
Average temperature yesterday: 56 °F

Past Weeks' High & Low Weather Summary

 TemperatureHumidityPressure
High80 °F (Apr 8, 2:54 PM)100% (Apr 4, 9:54 PM)30.21 "Hg (Apr 4, 9:54 PM)
Low39 °F (Apr 5, 6:54 AM)41% (Apr 8, 4:54 PM)29.77 "Hg (Apr 17, 6:54 PM)
Average57 °F83%29.97 "Hg
* Reported Apr 4 4:54 PM — Apr 19 4:54 PM, Napa, Weather by CustomWeather, © 2014

Note: Actual official high and low records may vary slightly from our data, if they occured in-between our weather recording intervals... More about our weather records

Advertising

Historic Weather Conditions — Data for Previous 24 hours

 ConditionsComfort  
Time TempWeatherWind HumidityBarometerVisibility
4:54 PM
Apr 19
63 °FSunny.23 mph73%30.02 "Hg10 mi
3:54 PM65 °FSunny.23 mph68%30.02 "Hg10 mi
2:54 PM67 °FSunny.17 mph63%30.03 "Hg10 mi
1:54 PM66 °FSunny.21 mph56%30.04 "Hg10 mi
12:54 PM64 °FSunny.21 mph50%30.03 "Hg10 mi
11:54 AM64 °FSunny.14 mph50%30.03 "Hg10 mi
10:54 AM61 °FSunny.9 mph54%30.03 "Hg10 mi
9:54 AM56 °FSunny.6 mph70%30.02 "Hg10 mi
8:54 AM52 °FSunny.12 mph83%30.01 "Hg10 mi
7:54 AM49 °FSunny.7 mph90%29.98 "Hg10 mi
6:54 AM47 °FPassing clouds.9 mph97%29.97 "Hg10 mi
5:54 AM46 °FPassing clouds.5 mph96%29.95 "Hg10 mi
4:54 AM47 °FPassing clouds.9 mph97%29.94 "Hg10 mi
3:54 AM47 °FClear.8 mph93%29.93 "Hg10 mi
2:54 AM46 °FClear.6 mph93%29.93 "Hg10 mi
1:54 AM46 °FClear.5 mph93%29.92 "Hg10 mi
12:54 AM47 °FClear.6 mph93%29.90 "Hg10 mi
11:54 PM
Apr 18
51 °FClear.6 mph92%29.90 "Hg10 mi
10:54 PM53 °FClear.15 mph89%29.89 "Hg10 mi
9:54 PM55 °FClear.10 mph83%29.89 "Hg10 mi
8:54 PM55 °FClear.10 mph74%29.86 "Hg10 mi
7:54 PM56 °FSunny.8 mph77%29.84 "Hg10 mi
6:54 PM61 °FSunny.13 mph65%29.84 "Hg10 mi
Weather by CustomWeather, © 2014

See weather overview